sat.trackr.live / text

‹ back to catalog

STARLINK-36077

NORAD 66903 · 2025-283AB

PAYLOAD ACTIVE UNKNOWN

§ Identity

Operator
Country
US
Launch date
2025-12-04
Launch site
AFWTR
Launch vehicle
Mass (kg)
RCS (m²)

Purposes: comms

External: N2YO · Heavens-Above · Gunter

§ Orbital elements

Epoch: 2026-05-25T02:27:37.753920Z

Period
94.10 min
Inclination
53.1579°
Eccentricity
0.0000557
Mean motion
15.30205972 rev/d
Perigee alt
474.8 km
Apogee alt
475.6 km
Semi-major
6,853.3 km
B*
7.4425e-4
RAAN
29.2088°
Arg perigee
81.2631°
Mean anomaly
278.8433°
Rev number
2,754

§ Raw data

STARLINK-360771 66903U 25283AB  26145.10252030  .00021752  00000+0  74425-3 0  99962 66903  53.1579  29.2088 0000557  81.2631 278.8433 15.30205972 27540

JSON: /api/v1/satellites/66903 · /tle

For live sub-satellite position, see the globe view (requires WebGL).

§ Visibility from observer

Set your observer location to see the next 7 days of passes ≥ 10°. The values pass through the URL so the page stays shareable.

No JS? Fill the form by hand. The geolocation button needs JavaScript.